Date String (YYYY-MM-DD hh:mm:ss) UTC,Instrument flags,absolute air pressure of the measurement (hPa),sample flow rate (lpm),inlet stack bypass flow (lpm),air temperature of the measurement (°C),ambient temperature measured by the external sensor (°C),aerosol sample conditioner tube jacket temperature (°C),OPC LED temperature (°C),internal box temperature (°C),relative humidity of the measurement (%),span deviation,mass concentration of particles derived from Lorenz-Mie calculation of OPC scattering (μg/m³),mass concentration of particles derived from Lorenz-Mie calculation of OPC scattering (μg/m³),mass concentration of particles derived from Lorenz-Mie calculation of OPC scattering (μg/m³)
DateTimeUTC,F1_M11,P_M11,Q1_M11,Q2_M11,T1_M11,T2_M11,T3_M11,T4_M11,T5_M11,U1_M11,ZSPAN_M11,X2_M11,X0_M11,X1_M11
2024-04-18 10:00:00,SystemResetWarning,0833.0,5.01,000.00,022.9,022.0,000.0,031.7,024.8,018.5,0000.0,0002.33,0002.99,0002.09
2024-04-18 10:01:00,SystemResetWarning,0833.1,5.00,000.00,022.9,022.0,000.0,031.7,024.8,018.5,0000.0,0002.33,0003.12,0002.09
2024-04-18 10:02:00,SystemResetWarning,0833.0,5.00,000.00,022.9,022.0,000.0,031.7,024.8,018.5,0000.0,0002.32,0003.12,0002.08
2024-04-18 10:03:00,SystemResetWarning,0833.1,5.00,000.00,022.9,022.0,000.0,031.7,024.8,018.5,0000.0,0002.33,0003.15,0002.08
2024-04-18 10:04:00,SystemResetWarning,0833.1,4.99,000.00,022.9,022.0,000.0,031.7,024.8,018.4,0000.0,0002.34,0003.18,0002.08
2024-04-18 10:05:00,SystemResetWarning,0833.2,4.99,000.00,022.9,022.0,000.0,031.6,024.8,018.4,0000.0,0002.36,0003.23,0002.08
2024-04-18 10:06:00,SystemResetWarning,0833.1,5.01,000.00,022.9,022.0,000.0,031.6,024.8,018.4,0000.0,0002.36,0003.26,0002.07
2024-04-18 10:07:00,SystemResetWarning,0833.2,5.01,000.00,022.8,022.0,000.0,031.6,024.8,018.4,0000.0,0002.34,0003.26,0002.06
2024-04-18 10:08:00,SystemResetWarning,0833.2,4.99,000.00,022.9,022.0,000.0,031.6,024.8,018.4,0000.0,0002.36,0003.28,0002.08
2024-04-18 10:09:00,SystemResetWarning,0833.2,4.99,000.00,022.8,022.0,000.0,031.6,024.8,018.4,0000.0,0002.36,0003.27,0002.08
2024-04-18 10:10:00,SystemResetWarning,0833.2,4.99,000.00,022.8,022.0,000.0,031.6,024.8,018.4,0000.0,0002.36,0003.25,0002.08
2024-04-18 10:11:00,SystemResetWarning,0833.2,5.00,000.00,022.8,022.0,000.0,031.6,024.8,018.4,0000.0,0002.34,0003.21,0002.09
2024-04-18 10:12:00,SystemResetWarning,0833.2,5.01,000.00,022.8,022.0,000.0,031.6,024.8,018.4,0000.0,0002.34,0003.07,0002.09
2024-04-18 10:13:00,SystemResetWarning,0833.2,5.01,000.00,022.8,022.0,000.0,031.6,024.8,018.4,0000.0,0002.37,0003.45,0002.11
2024-04-18 10:14:00,SystemResetWarning,0833.1,5.00,000.00,022.8,022.0,000.0,031.6,024.8,018.3,0000.0,0002.41,0003.57,0002.12
2024-04-18 10:15:00,SystemResetWarning,0833.1,5.00,000.00,022.8,022.0,000.0,031.6,024.8,018.3,0000.0,0002.41,0003.58,0002.12
2024-04-18 10:16:00,SystemResetWarning,0833.2,5.00,000.00,022.8,022.0,000.0,031.5,024.7,018.3,0000.0,0002.39,0003.58,0002.13
2024-04-18 10:17:00,SystemResetWarning,0833.2,5.00,000.00,022.8,022.0,000.0,031.5,024.7,018.3,0000.0,0002.40,0003.56,0002.14
2024-04-18 10:18:00,SystemResetWarning,0833.2,5.00,000.00,022.8,022.0,000.0,031.5,024.7,018.3,0000.0,0002.42,0003.52,0002.16
2024-04-18 10:19:00,SystemResetWarning,0833.2,5.00,000.00,022.8,022.0,000.0,031.5,024.7,018.3,0000.0,0002.44,0003.56,0002.17
2024-04-18 10:20:00,SystemResetWarning,0833.2,5.00,000.00,022.8,022.0,000.0,031.5,024.7,018.3,0000.0,0002.47,0003.61,0002.19
2024-04-18 10:21:00,SystemResetWarning,0833.1,4.99,000.00,022.8,021.9,000.0,031.5,024.7,018.3,0000.0,0002.47,0003.58,0002.21
2024-04-18 10:22:00,SystemResetWarning,0833.1,5.00,000.00,022.8,022.0,000.0,031.5,024.7,018.4,0000.0,0002.49,0003.61,0002.23
2024-04-18 10:23:00,SystemResetWarning,0833.0,5.00,000.00,022.8,022.0,000.0,031.5,024.7,018.4,0000.0,0002.57,0003.76,0002.26
2024-04-18 10:24:00,SystemResetWarning,0833.2,5.00,000.00,022.8,022.0,000.0,031.5,024.7,018.3,0000.0,0002.60,0003.48,0002.29
2024-04-18 10:25:00,SystemResetWarning,0833.2,4.99,000.00,022.8,022.0,000.0,031.5,024.7,018.3,0000.0,0002.60,0003.40,0002.30
2024-04-18 10:26:00,SystemResetWarning,0833.2,5.00,000.00,022.7,021.9,000.0,031.5,024.7,018.4,0000.0,0002.58,0003.31,0002.31
2024-04-18 10:27:00,SystemResetWarning,0833.0,5.00,000.00,022.7,021.9,000.0,031.5,024.7,018.3,0000.0,0002.58,0003.26,0002.32
2024-04-18 10:28:00,SystemResetWarning,0833.0,5.00,000.00,022.7,022.0,000.0,031.5,024.7,018.3,0000.0,0002.62,0003.36,0002.33
2024-04-18 10:29:00,SystemResetWarning,0833.0,5.01,000.00,022.7,021.9,000.0,031.5,024.7,018.4,0000.0,0002.64,0003.49,0002.34
2024-04-18 10:30:00,SystemResetWarning,0833.0,5.00,000.00,022.7,021.9,000.0,031.4,024.7,018.4,0000.0,0002.60,0003.42,0002.32
2024-04-18 10:31:00,SystemResetWarning,0833.0,5.01,000.00,022.7,021.9,000.0,031.4,024.7,018.4,0000.0,0002.62,0003.47,0002.32
2024-04-18 10:32:00,SystemResetWarning,0833.0,5.00,000.00,022.7,021.9,000.0,031.4,024.7,018.4,0000.0,0002.64,0003.51,0002.32
2024-04-18 10:33:00,SystemResetWarning,0833.0,5.01,000.00,022.7,021.9,000.0,031.4,024.7,018.4,0000.0,0002.64,0003.54,0002.32
2024-04-18 10:34:00,SystemResetWarning,0833.2,5.00,000.00,022.7,021.9,000.0,031.4,024.6,018.4,0000.0,0002.58,0003.38,0002.30
2024-04-18 10:35:00,SystemResetWarning,0833.1,4.99,000.00,022.7,021.9,000.0,031.4,024.6,018.5,0000.0,0002.55,0003.23,0002.28
2024-04-18 10:36:00,SystemResetWarning,0833.2,4.99,000.00,022.7,021.9,000.0,031.4,024.6,018.5,0000.0,0002.53,0003.19,0002.28
2024-04-18 10:37:00,SystemResetWarning,0833.2,5.00,000.00,022.7,021.9,000.0,031.4,024.6,018.5,0000.0,0002.53,0003.18,0002.27
2024-04-18 10:38:00,SystemResetWarning,0833.1,5.01,000.00,022.7,021.9,000.0,031.4,024.6,018.5,0000.0,0002.52,0003.54,0002.27
2024-04-18 10:39:00,SystemResetWarning,0833.1,5.02,000.00,022.7,021.9,000.0,031.4,024.6,018.5,0000.0,0002.49,0003.48,0002.26
2024-04-18 10:40:00,SystemResetWarning,0833.1,4.99,000.00,022.7,021.9,000.0,031.4,024.6,018.5,0000.0,0002.48,0003.46,0002.26
2024-04-18 10:41:00,SystemResetWarning,0833.1,4.99,000.00,022.7,021.9,000.0,031.4,024.6,018.6,0000.0,0002.48,0003.43,0002.27
2024-04-18 10:42:00,SystemResetWarning,0833.2,4.99,000.00,022.7,021.9,000.0,031.4,024.6,018.6,0000.0,0002.47,0003.41,0002.26
2024-04-18 10:43:00,SystemResetWarning,0833.2,4.99,000.00,022.7,021.9,000.0,031.4,024.6,018.6,0000.0,0002.45,0003.38,0002.24
2024-04-18 10:44:00,SystemResetWarning,0833.2,5.00,000.00,022.7,021.9,000.0,031.4,024.6,018.6,0000.0,0002.44,0003.39,0002.24
2024-04-18 10:45:00,SystemResetWarning,0833.2,5.01,000.00,022.7,021.9,000.0,031.4,024.6,018.7,0000.0,0002.44,0003.39,0002.23
2024-04-18 10:46:00,SystemResetWarning,0833.2,5.01,000.00,022.7,021.9,000.0,031.4,024.6,018.7,0000.0,0002.41,0003.35,0002.22
2024-04-18 10:47:00,SystemResetWarning,0833.2,5.00,000.00,022.7,021.9,000.0,031.4,024.6,018.7,0000.0,0002.41,0003.34,0002.21
2024-04-18 10:48:00,SystemResetWarning,0833.2,4.99,000.00,022.6,021.9,000.0,031.3,024.6,018.7,0000.0,0002.40,0003.49,0002.20
2024-04-18 10:49:00,SystemResetWarning,0833.2,4.99,000.00,022.6,021.9,000.0,031.3,024.6,018.8,0000.0,0002.40,0003.21,0002.20
2024-04-18 10:50:00,SystemResetWarning,0833.2,5.00,000.00,022.6,021.9,000.0,031.3,024.6,018.8,0000.0,0002.40,0003.14,0002.20
2024-04-18 10:51:00,SystemResetWarning,0833.2,5.00,000.00,022.6,021.9,000.0,031.3,024.6,018.8,0000.0,0002.38,0003.08,0002.19
2024-04-18 10:52:00,SystemResetWarning,0833.2,5.01,000.00,022.6,021.9,000.0,031.3,024.6,019.7,0000.0,0002.37,0003.09,0002.18
2024-04-18 10:53:00,SystemResetWarning,0833.2,5.01,000.00,022.6,021.9,000.0,031.3,024.6,020.8,0000.0,0002.39,0003.41,0002.18
2024-04-18 10:54:00,SystemResetWarning,0833.2,4.99,000.00,022.6,021.9,000.0,031.3,024.6,019.7,0000.0,0002.40,0004.18,0002.19
2024-04-18 10:55:00,SystemResetWarning,0833.2,4.99,000.00,022.6,021.9,000.0,031.3,024.6,019.3,0000.0,0002.41,0004.79,0002.19
2024-04-18 10:56:00,SystemResetWarning,0833.2,5.00,000.00,022.6,021.9,000.0,031.3,024.6,019.2,0000.0,0002.43,0004.95,0002.20
2024-04-18 10:57:00,SystemResetWarning,0833.2,5.00,000.00,022.6,021.9,000.0,031.3,024.6,019.2,0000.0,0002.48,0005.08,0002.21
2024-04-18 10:58:00,SystemResetWarning,0833.2,5.00,000.00,022.6,021.9,000.0,031.3,024.6,019.1,0000.0,0002.50,0005.12,0002.23
2024-04-18 10:59:00,SystemResetWarning,0833.2,5.00,000.00,022.6,021.9,000.0,031.3,024.6,019.1,0000.0,0002.52,0004.99,0002.25
